NIMBUS 2 DEB, 42436

Orbit data source: Space-Track

NIMBUS 2 DEB, 42436 is space debris in SSO originally from a launch on Sun, 15 May 1966 UTC launched from the Air Force Western Test Range (AFWTR). Debris objects in space refer to the collection of defunct objects orbiting the Earth. Examples of debris include non-operational satellites, rocket bodies, and fragments generated from explosions, collisions, or faulty payload assembly.

Loading next visibility...
Identifier
42436, 1966-040BP
Orbit
SSO
Country
Flag of USUS
Related business
Manufacturer
Unknown
Mission
Spacecraft
Bus & Motor
Unknown
Mass
Unknown
Launch date (UTC)
1966-05-15 (60 years ago)
Launch vehicle
Unknown
Launch site
Air Force Western Test Range (AFWTR)
Object type
Payload
Rocket body
Debris
Shape & HBR
Unknown shape, 0.1 m
Radar Cross Section
Small (<0.1 m²)

Expand to show TLE details & history
Last TLE update: 1 day ago

TLE from 1 day ago
0 NIMBUS 2 DEB
1 42436U 66040BP  25346.31027209  .00002929  00000-0  49745-2 0  9992
2 42436 100.3123 185.8774 0052234 270.8677  88.6468 13.45563478514796
Epoch: 2025-12-12T07:26Z
TLE epoch observation values (Epoch: 2025-12-12T07:26:47.508Z)
Latitude
-0.00003°
Longitude
-7.07427°
Altitude
1,090.666 km
Speed
7.307 km/s
True Right ascension
12h 23m 30s
True Declination
0° 00' 00"
Sunlit
Object was in daylight at epoch
Visualization orbit readout
Latitude
Unknown
Longitude
Unknown
Altitude
Unknown
Speed
Unknown
Apparent Right ascension
Unknown
Apparent Declination
Unknown
Sunlit
N/A
Visualization observer readout
Local Sidereal Time
14:10:31
Azimuth
Unknown
Elevation
Unknown
Doppler factor
Unknown
Orbital elements
Apogee altitude
1,124.954 km
Perigee altitude
1,046.978 km
Semi-major axis
7,464.103 km
Eccentricity
0.00522
Inclination
100.3123°
RAAN
185.8774°
Arg. of periapsis
270.8677°
True anomaly
89.24527°
Mean anomaly
88.6468°
Eccentric anomaly
88.94603°
Mean motion
3.36571 °/min
Orbital period
106.96 mins
BSTAR
0.0049745
Loading maneuver chart data...
Computing Atmospheric mass density...
Loading historical data...
Loading historical data...
Loading historical data...
Loading historical data...
Loading historical data...
Loading historical data...
Loading historical data...

Documentation

Showing up to 5 results
|